Regional Weather Roundup
Issued by NWS Green Bay, WI

Home | Current Version | Previous Version | Text Only | Print | Product List | Glossary On
Versions: 1 2 3 4 5 6 7 8 9 10 11 12 13 14 15 16 17 18 19 20 21 22 23 24 25 26 27 28 29 30 31 32 33 34 35 36 37 38 39 40 41 42 43 44 45 46 47 48 49 50
917
ASUS43 KGRB 210900
RWRGRB

NORTH-CENTRAL AND NORTHEAST WISCONSIN REGIONAL WEATHER ROUNDUP
NATIONAL WEATHER SERVICE GREEN BAY WI
300 AM CST SUN JAN 21 2018

WIZ005-009-010>012-018-019-211000-
NORTH CENTRAL WISCONSIN

CITY           SKY/WX    TMP DP  RH WIND       PRES   REMARKS
IRONWOOD       FOG       24  23  96 CALM      29.94S VSB 1/4
MANITOWISH WTR NOT AVBL
ARBOR VITAE    NOT AVBL
EAGLE RIVER    FAIR      27  27 100 CALM      29.93R
LAND O LAKES   NOT AVBL
RHINELANDER    CLOUDY    31  30  96 CALM      29.94R
PHILLIPS       CLOUDY    29  29 100 CALM      29.93S
ANTIGO         NOT AVBL
TOMAHAWK       NOT AVBL
MERRILL        CLOUDY    30  29  99 CALM      29.95S
$$

WIZ013-073-211000-
NORTHEAST WISCONSIN

CITY           SKY/WX    TMP DP  RH WIND       PRES   REMARKS
IRON MOUNTAIN  CLOUDY    30  26  85 NW3       29.93R
MARINETTE      FAIR      31  28  89 CALM      29.97S
$$

WIZ017-030-035>037-045-211000-
CENTRAL WISCONSIN

CITY           SKY/WX    TMP DP  RH WIND       PRES   REMARKS
MEDFORD        NOT AVBL
WAUSAU         CLOUDY    30  28  92 N3        29.92F
MOSINEE        NOT AVBL
MARSHFIELD     FAIR      30  28  92 CALM      29.92S FOG
WISC RAPIDS    FAIR      26  23  88 N3        29.95S FOG
STEVENS POINT  NOT AVBL
WAUPACA        NOT AVBL
SHAWANO        CLOUDY    32  29  90 CALM      29.96R
CLINTONVILLE   NOT AVBL
WAUTOMA        FAIR      23  21  92 CALM      29.96S
$$

WIZ038-039-048-051-211000-
FOX VALLEY

CITY           SKY/WX    TMP DP  RH WIND       PRES   REMARKS
NWS GREEN BAY  FAIR      31  27  85 CALM      29.97S FOG
APPLETON       NOT AVBL
OSHKOSH        FAIR      28  27  96 CALM      29.95F FOG
FOND DU LAC    FAIR      28  24  85 CALM      29.95F FOG
$$

WIZ022-050-052-211000-
EAST CENTRAL WISCONSIN

CITY           SKY/WX    TMP DP  RH WIND       PRES   REMARKS
EPHRAIM        NOT AVBL
WASHINGTON ISL NOT AVBL
STURGEON BAY   FAIR      31  29  92 CALM      29.97S
MANITOWOC      FAIR      27  26  96 S3        29.98S FOG
SHEBOYGAN      FAIR      26  24  92 CALM      29.96S FOG
$$

LMZ563-521-522-541>543-211000-
LAKESHORE

STATION/POSITION TIME  TEMP    WIND        PRES    VSBY  WAVE
                       AIR SEA DIR/SP/G                  HT/PER
                 (UTC) (F)     (DEG/KT/KT) (MB)    (MI)  (FT/S)
SHEBOYGAN LKSHOR 0800   33     230/  1/  2 1015.5R
KEWAUNEE LKSHORE 0830   31      CALM  /  1 1014.3R
NORTHPORT PIER   0840   34     180/  2/  4 1014.6F
SISTER BAY LKSHO 0820   34     150/  5/  7   N/A
MENOMINEE LKSHOR 0830   32     360/  4/  6 1014.4F
$$




USA.gov is the U.S. government's official web portal to all federal, state and local government web resources and services.